Location: Baia Mare
(47.6567°N, 23.5850°E)
Time: 12:42:52
(UTC+02:00)

ISS - Pass Details

Date: 23 January 2019
Orbit: 404 x 407 km, 51.6° (Epoch: 16 January)

Event Time Altitude Azimuth Distance (km) Brightness Sun altitude
Rises 19:34:26 0° 232° (SW) 2,316 0.9 -23.7°
Reaches altitude 10° 19:36:31 10° 228° (SW) 1,460 -0.4 -24.0°
Enters shadow 19:38:04 25° 218° (SW) 870 -1.8 -24.3°
